#timestamp,LO_Frequency,Hit,StdDev 
1580508015.6,286047001.7,N
1580508035.4,286047000.0,N
1580508055.3,286047001.5,N
1580508075.1,286047003.5,N
1580508095.8,286047002.2,N
1580508115.7,286046999.9,N
1580508135.5,286046998.5,N
1580508155.3,286047000.0,N
1580508175.2,286047001.2,N
1580508195.0,286047002.5,N
1580508195.9,286047002.5,N
1580508215.8,286047001.4,N
1580508235.6,286047002.0,N
1580508255.4,286047002.5,N
1580508275.3,286047000.0,N
1580508295.1,286046999.8,N
1580508315.9,286047004.0,N
1580508335.7,286046999.7,N
1580508355.5,286047000.1,N
1580508375.4,286047000.1,N
1580508395.2,286046999.6,N
1580508415.0,286047002.0,N
1580508415.9,286047002.0,N
1580508435.8,286046998.2,N
1580508455.6,286047000.9,N
1580508475.5,286047000.8,N
1580508495.3,286046998.7,N
1580508515.1,286046998.3,N
1580508535.9,286046999.5,N
1580508555.7,286047000.9,N
1580508575.5,286047002.8,N
1580508595.4,286047002.6,N
1580508615.2,286047000.2,N
1580508635.1,286047000.8,N
1580508636.0,286047000.8,N
1580508655.8,286046999.5,N
1580508675.6,286046998.2,N
1580508695.5,286046998.6,N
1580508715.3,286046999.8,N
1580508735.1,286047002.0,N
1580508755.9,286047002.4,N
1580508775.7,286047000.7,N
1580508795.6,286047001.4,N
1580508815.4,286047003.2,N
1580508835.2,286047004.3,N
1580508855.1,286047003.5,N
1580508856.0,286047003.5,N
1580508875.8,286047005.8,Y
1580508895.7,286047004.1,P
1580508915.5,286047003.8,N
1580508935.3,286047000.7,N
1580508955.2,286047002.4,N
1580508975.0,286046999.0,N
1580508975.9,286046999.0,N
1580508995.7,286046998.1,N
1580509015.6,286046999.0,N
1580509035.4,286046997.9,N
1580509055.3,286046995.4,N
1580509075.1,286046996.3,N
1580509076.0,286046996.3,N
1580509095.8,286046995.9,N
1580509115.7,286046999.6,N
1580509135.5,286046998.9,N
1580509155.4,286046999.2,N
1580509175.2,286046995.0,N
1580509195.0,286046995.8,N
1580509195.9,286046995.8,N
1580509215.8,286047000.2,N
1580509235.6,286046998.5,N
1580509255.4,286047000.8,N
1580509275.3,286046996.7,N
1580509295.1,286046999.6,N
1580509315.9,286046997.7,N
1580509335.7,286046999.6,N
1580509355.5,286046998.4,N
1580509375.4,286046996.7,N
1580509395.2,286046995.8,N
1580509415.0,286046996.0,N
1580509415.9,286046996.0,N
1580509435.8,286046998.0,N
1580509455.6,286046998.0,N
1580509475.5,286046997.5,N
1580509495.3,286046996.5,N
1580509515.1,286046999.2,N
1580509535.9,286046997.5,N
1580509555.7,286046999.2,N
1580509575.5,286047001.1,N
1580509595.4,286046998.8,N
1580509615.2,286047000.6,N
1580509635.1,286047001.0,N
1580509636.0,286047001.0,N
1580509655.8,286046998.5,N
1580509675.6,286046998.4,N
1580509695.5,286046995.4,N
1580509715.3,286046997.8,N
1580509735.2,286046996.5,N
1580509755.9,286046999.2,N
1580509775.7,286046999.3,N
1580509795.6,286047000.3,N
1580509815.4,286046998.8,N
1580509835.2,286046997.8,N
1580509855.1,286046995.4,N
1580509856.0,286046995.4,N
1580509875.8,286046997.5,N
1580509895.7,286046999.4,N
1580509915.5,286046999.6,N
1580509935.3,286046996.8,N
1580509955.2,286046999.4,N
1580509975.0,286046998.6,N
1580509975.9,286046998.6,N
1580509995.8,286046998.6,N
1580510015.6,286047000.8,N
1580510035.4,286046999.4,N
1580510055.3,286046996.6,N
1580510075.1,286046996.6,N
1580510095.8,286046995.1,N
1580510115.7,286046998.8,N
1580510135.5,286046999.9,N
1580510155.4,286047001.2,N
1580510175.2,286047001.1,N
1580510195.0,286047000.7,N
1580510195.9,286047000.7,N
1580510215.8,286047000.0,N
1580510235.6,286046999.4,N
1580510255.4,286046995.4,N
1580510275.3,286046999.6,N
1580510295.1,286046998.2,N
1580510315.9,286046999.5,N
1580510335.7,286046996.6,N
1580510355.5,286046995.6,N
1580510375.4,286046999.2,N
1580510395.2,286046995.6,N
1580510415.0,286047000.9,N
1580510415.9,286047000.9,N
1580510435.8,286047002.6,N
1580510455.6,286047000.7,N
1580510475.5,286046998.6,N
1580510495.3,286046997.6,N
1580510515.1,286046995.5,N
1580510535.9,286046995.7,N
1580510555.7,286046993.3,Y
1580510575.6,286046996.0,P
1580510595.4,286046996.2,N
1580510615.2,286046995.2,P
1580510635.1,286046995.8,Y
1580510636.0,286046995.8,P
1580510655.8,286047001.0,N
1580510675.7,286046998.5,N
1580510695.5,286047000.8,N
1580510715.3,286046999.7,N
1580510735.2,286047003.2,N
1580510755.9,286047007.1,N
1580510775.7,286047005.2,N
1580510795.6,286047003.5,N
1580510815.4,286047003.2,N
1580510835.3,286047000.2,N
1580510855.1,286047000.3,N
1580510856.0,286047000.3,N
1580510875.8,286047001.1,N
1580510895.7,286047004.1,N
1580510915.5,286047005.6,N
1580510935.3,286047001.5,N
1580510955.2,286047002.1,N
1580510975.0,286046998.6,N
1580510975.9,286046998.6,N
1580510995.8,286047002.6,N
1580511015.6,286047002.7,N
1580511035.4,286047004.0,N
1580511055.3,286047001.9,N
1580511075.1,286047000.2,N
1580511095.9,286047003.3,N
1580511115.7,286047005.9,N
1580511135.5,286047000.5,N
1580511155.4,286046998.6,N
1580511175.2,286046998.6,N
1580511195.0,286047000.8,N
1580511195.9,286047000.8,N
1580511215.8,286047001.2,N
1580511235.6,286047000.8,N
1580511255.5,286047000.1,N
1580511275.3,286046998.9,N
1580511295.1,286047001.5,N
1580511315.9,286047000.5,N
1580511335.7,286046998.4,N
1580511355.5,286046998.1,N
1580511375.4,286047002.5,N
1580511395.2,286047004.1,N
1580511415.1,286047002.4,N
1580511416.0,286047002.4,N
1580511465.8,286047002.4,E
1580511475.7,286047000.5,N
1580511495.6,286046998.9,P
1580511515.4,286046999.2,N
1580511535.3,286046997.5,Y
1580511555.1,286046997.0,P
1580511556.0,286046997.0,N
1580511575.8,286046997.4,N
1580511595.7,286046995.7,Y
